Flag for Germany Weather past 2 weeks in Mainz, Rhineland-Palatinate, Germany

Now
68 °F

Mostly cloudy.


Feels Like: 68 °F
Forecast: 48 / 66 °F
Wind: 12 mph from West

Location: Wiesbaden Airport

Current Time: May 28, 2015 at 6:31:17 PM

Latest Report: May 28, 2015 at 5:58 PM


Visibility: N/A

Pressure: 29.93 "Hg

Humidity: 46%

Dew point: 46 °F

Location of MainzLocation

Historic Weather in Mainz — Graph

°F

Mainz temperature yesterday

Maximum temperature yesterday: 59 °F (at 3:58 PM)
Minimum temperature yesterday: 40 °F (at 4:58 AM)
Average temperature yesterday: 51 °F

Past Weeks' High & Low Weather Summary

 TemperatureHumidityPressure
High73 °F (May 15, 4:58 PM)94% (May 13, 10:59 PM)30.34 "Hg (May 13, 10:59 PM)
Low39 °F (May 28, 2:58 AM)33% (May 18, 2:58 PM)29.67 "Hg (May 19, 1:58 AM)
Average57 °F63%30.06 "Hg
* Reported May 13 4:58 PM — May 28 4:58 PM, Mainz, Weather by CustomWeather, © 2015

Note: Actual official high and low records may vary slightly from our data, if they occured in-between our weather recording intervals... More about our weather records

Advertising

Mainz weather history for previous 24 hours

 ConditionsComfort  
Time TempWeatherWind HumidityBarometerVisibility
4:58 PM
Thu, May 28
66 °FOvercast.13 mph49%29.95 "HgN/A
3:58 PM68 °FOvercast.15 mph44%29.95 "HgN/A
2:58 PM71 °FPartly sunny.17 mph44%29.96 "HgN/A
1:55 PM69 °FPartly sunny.14 mph47%29.97 "HgN/A
12:55 PM68 °FCloudy.15 mph46%30.00 "HgN/A
11:57 AM64 °FScattered clouds.12 mph52%30.03 "HgN/A
10:58 AM60 °FScattered clouds.6 mph59%30.05 "HgN/A
9:58 AM55 °FSunny.5 mph65%30.07 "HgN/A
8:59 AM52 °FPartly sunny.2 mph72%30.07 "HgN/A
8:58 AM52 °FPartly sunny.1 mph72%30.08 "HgN/A
7:58 AM48 °FScattered clouds.2 mph76%30.09 "HgN/A
6:58 AM46 °FOvercast.2 mph82%30.10 "HgN/A
5:58 AM43 °FPassing clouds.No wind86%30.09 "HgN/A
5:55 AM43 °FPassing clouds.No wind86%30.09 "HgN/A
4:58 AM43 °FPartly cloudy.No wind87%30.10 "HgN/A
3:58 AM43 °FOvercast.No wind87%30.12 "HgN/A
3:03 AM41 °FPassing clouds.No wind87%30.12 "HgN/A
2:58 AM39 °FLight rain. Passing clouds.No wind93%30.13 "HgN/A
1:58 AM41 °FClear.No wind87%30.14 "HgN/A
12:58 AM41 °FClear.2 mph85%30.16 "HgN/A
11:58 PM
Wed, May 27
44 °FClear.No wind80%30.16 "HgN/A
10:58 PM44 °FClear.No wind79%30.18 "HgN/A
9:58 PM52 °FSunny.No wind58%30.19 "HgN/A
8:58 PM56 °FSunny.No wind48%30.19 "HgN/A
7:58 PM59 °FSunny.5 mph48%30.20 "HgN/A
6:58 PM59 °FOvercast.6 mph45%30.21 "HgN/A
Weather by CustomWeather, © 2015

See weather overviewHow to use our weather pages